TimeCST,TemperatureF,Dew PointF,Humidity,Sea Level PressureIn,VisibilityMPH,Wind Direction,Wind SpeedMPH,Gust SpeedMPH,PrecipitationIn,Events,Conditions,WindDirDegrees,DateUTC
12:54 AM,39.0,36.0,89,30.01,6.0,SE,9.2,-,0.04,Rain,Light Rain,140,2013-02-10 06:54:00
1:05 AM,37.4,35.6,93,29.99,6.0,East,8.1,-,0.00,Rain,Light Rain,100,2013-02-10 07:05:00
1:54 AM,39.0,36.0,89,29.96,6.0,SE,10.4,23.0,0.02,Rain,Light Rain,140,2013-02-10 07:54:00
2:43 AM,39.2,37.4,93,29.94,6.0,SE,9.2,-,0.03,Rain,Light Rain,140,2013-02-10 08:43:00
2:54 AM,39.9,37.0,89,29.93,6.0,SE,8.1,-,0.03,Rain,Light Rain,130,2013-02-10 08:54:00
3:54 AM,39.9,36.0,86,29.90,7.0,SE,10.4,-,0.02,Rain,Light Rain,130,2013-02-10 09:54:00
4:54 AM,39.9,37.0,89,29.85,8.0,ESE,12.7,-,0.01,Rain,Light Rain,110,2013-02-10 10:54:00
5:38 AM,42.8,37.4,81,29.84,7.0,SE,16.1,-,0.00,Rain,Light Rain,140,2013-02-10 11:38:00
5:54 AM,42.1,37.9,85,29.84,10.0,SE,15.0,-,0.01,Rain,Light Rain,130,2013-02-10 11:54:00
6:54 AM,42.1,39.0,89,29.81,4.0,SE,13.8,-,0.06,Rain,Light Rain,140,2013-02-10 12:54:00
7:06 AM,42.8,39.2,87,29.79,8.0,ESE,12.7,-,0.02,Rain-Thunderstorm,Light Thunderstorms and Rain,110,2013-02-10 13:06:00
7:30 AM,44.6,39.2,81,29.79,10.0,SE,11.5,-,0.02,,Overcast,130,2013-02-10 13:30:00
7:54 AM,45.0,39.9,82,29.81,10.0,South,17.3,21.9,0.03,Rain,Light Rain,180,2013-02-10 13:54:00
8:24 AM,44.6,41.0,87,29.78,2.5,SSE,18.4,-,0.08,Rain,Rain,160,2013-02-10 14:24:00
8:35 AM,44.6,41.0,87,29.78,4.0,SSE,17.3,-,0.10,Rain,Rain,150,2013-02-10 14:35:00
8:54 AM,44.1,41.0,89,29.76,3.0,SSE,20.7,27.6,0.15,Rain,Rain,150,2013-02-10 14:54:00
9:01 AM,44.6,41.0,87,29.75,2.5,SSE,19.6,27.6,0.02,Rain,Rain,150,2013-02-10 15:01:00
9:13 AM,44.6,42.8,93,29.75,3.0,SSE,20.7,-,0.05,Rain,Rain,150,2013-02-10 15:13:00
9:54 AM,46.0,43.0,89,29.71,10.0,SSE,24.2,31.1,0.06,,Mostly Cloudy,150,2013-02-10 15:54:00
10:18 AM,46.4,42.8,87,29.72,9.0,SSE,19.6,29.9,0.00,Rain,Light Rain,150,2013-02-10 16:18:00
10:54 AM,48.9,44.1,83,29.68,10.0,SSE,23.0,33.4,0.02,,Overcast,160,2013-02-10 16:54:00
11:16 AM,50.0,44.6,82,29.67,10.0,South,21.9,33.4,N/A,,Overcast,170,2013-02-10 17:16:00
11:54 AM,51.1,46.0,83,29.65,10.0,SSE,25.3,33.4,N/A,,Overcast,160,2013-02-10 17:54:00
12:02 PM,51.8,46.4,82,29.64,10.0,SSE,29.9,33.4,N/A,,Overcast,160,2013-02-10 18:02:00
12:35 PM,50.0,44.6,82,29.63,10.0,SSE,20.7,29.9,N/A,,Overcast,160,2013-02-10 18:35:00
12:54 PM,48.9,45.0,86,29.62,10.0,South,17.3,28.8,N/A,,Overcast,170,2013-02-10 18:54:00
1:54 PM,48.9,46.9,93,29.60,4.0,SSE,15.0,-,N/A,,Overcast,160,2013-02-10 19:54:00
2:23 PM,50.0,46.4,87,29.58,5.0,SSE,12.7,-,N/A,,Overcast,160,2013-02-10 20:23:00
2:54 PM,52.0,48.9,89,29.57,10.0,SSE,15.0,-,N/A,,Overcast,150,2013-02-10 20:54:00
3:07 PM,53.6,50.0,88,29.58,10.0,South,13.8,-,N/A,,Overcast,170,2013-02-10 21:07:00
3:28 PM,55.4,51.8,88,29.57,10.0,South,17.3,-,N/A,,Mostly Cloudy,170,2013-02-10 21:28:00
3:54 PM,55.0,51.1,86,29.57,10.0,South,17.3,-,N/A,,Scattered Clouds,180,2013-02-10 21:54:00
4:54 PM,55.9,50.0,80,29.58,10.0,South,17.3,-,N/A,,Clear,170,2013-02-10 22:54:00
5:54 PM,53.1,48.9,86,29.60,10.0,South,13.8,-,N/A,,Clear,180,2013-02-10 23:54:00
6:54 PM,54.0,46.9,77,29.62,10.0,SSW,15.0,-,N/A,,Clear,200,2013-02-11 00:54:00
7:54 PM,53.1,32.0,45,29.65,10.0,WSW,16.1,-,N/A,,Clear,240,2013-02-11 01:54:00
8:54 PM,52.0,30.9,45,29.68,10.0,SW,12.7,-,N/A,,Clear,230,2013-02-11 02:54:00
9:54 PM,52.0,30.0,43,29.69,10.0,WSW,25.3,40.3,N/A,,Clear,240,2013-02-11 03:54:00
10:54 PM,50.0,30.9,48,29.71,10.0,West,19.6,28.8,N/A,,Clear,260,2013-02-11 04:54:00
11:54 PM,45.0,30.0,56,29.77,10.0,West,25.3,34.5,N/A,,Clear,270,2013-02-11 05:54:00